Other Surface Observations
Issued by NWS Tucson, AZ

Home | Current Version | Previous Version | Text Only | Print | Product List | Glossary On
Versions: 1 2 3 4 5 6 7 8 9 10 11 12 13 14 15 16 17 18 19 20 21 22 23 24 25 26 27 28 29 30 31 32 33 34 35 36 37 38 39 40 41 42 43 44 45 46 47 48 49 50
000
SXUS55 KTWC 291915
OSOTWC

WEATHER ROUNDUP FOR SOUTHEAST ARIZONA
NATIONAL WEATHER SERVICE TUCSON AZ
1215 PM MST MON AUG 29 2016

AZZ504>506-514-292015-
LOCATION       SKY/WX    TMP DP  RH WIND       PRES   REMARKS
TUCSON         SUNNY     94  43  17 N7        30.02F
DAVIS-MONTHAN  MOSUNNY   92  44  18 N5        30.00F
CHILDRENS PARK N/A      N/A N/A  19 SW0               PIMA CO DEQ
ALVERNON/22ND  N/A       88 N/A N/A N2                PIMA CO DEQ
CHERRY/GLENN   N/A      N/A N/A N/A N/A               PIMA CO DEQ
TANGERINE      N/A       91 N/A N/A SW4               PIMA CO DEQ
CONTL RANCH    N/A       91  40  17 SE4               PIMA CO DEQ
GRANT/1ST      N/A       90  42  19 S0                PIMA CO DEQ
CRAYCROFT/22ND N/A       90  42  19 N/A               PIMA CO DEQ
GOLFLINKS/KOLB N/A      N/A N/A N/A N/A               PIMA CO DEQ
AJO/12TH       N/A       90  44  20 S2                PIMA CO DEQ
SAGUARO EAST   N/A       32  -1  22 NW3               PIMA CO DEQ
FAIRGROUNDS    N/A       90 N/A N/A N/A               PIMA CO DEQ
SAGUARO        N/A       94  47  20 W3                *SABINO CYN
SAN CARLOS     N/A       90  48  24 SE9G14            *SAN CARLOS
GREEN VALLEY   N/A       88  42  20 NE3               PIMA CO DEQ
HORSE CAMP CYN N/A       88  44  22 SE6G13            *ARAVAIPA CYN
RINCON MTNS    N/A       68  39  35 E2                *NR MANNING CAMP
$$

AZZ509>511-292015-
LOCATION       SKY/WX    TMP DP  RH WIND       PRES   REMARKS
SAFFORD        SUNNY     90  49  24 VRB3      30.05F
STRAY HORSE    N/A       70  46  42 SE3               *
TRAIL CABIN    N/A       74  45  35 S5G12             *N OF GRANVILLE
BLACK HILLS    NOT AVBL
DRY LAKE       N/A       70  37  30 S4G12             *NATANES MTNS
NOON CREEK     N/A       83  49  31 E5G11             *PINALENO MTNS
COLUMBINE      N/A       58  35  42 W5G11             *PINALENO MTNS
GUTHRIE        N/A       78  47  34 E6G12             *SW OF GUTHRIE
$$

AZZ502-503-513-292015-
LOCATION       SKY/WX    TMP DP  RH WIND       PRES   REMARKS
NOGALES        MOSUNNY   87  42  20 VRB3      30.09F
SELLS          N/A       98  44  16 NE4G13            *
SASABE         N/A       92  42  18 NE3               *ALTAR VLY
HOPKINS        N/A       79  42  27 SW6G10            *SANTA RITA MTNS
CARR CYN       N/A       85  50  30 N3                *W OF HEREFORD
$$

AZZ507-508-512-292015-
LOCATION       SKY/WX    TMP DP  RH WIND       PRES   REMARKS
SIERRA VISTA   MOSUNNY   86  44  22 VRB1      30.16F
DOUGLAS        CLOUDY    86  48  26 NE6       30.11F
EMPIRE MTNS    NOT AVBL
MULESHOE RANCH N/A       86  39  19 S6G11             *PRESERVE
HEADQUARTERS   NOT AVBL
$$

.............................NOTES.............................
THIS IS AN AUTOMATED COLLECTIVE WITH MINIMAL QUALITY CONTROL.
PIMA CO DEQ SITES HAVE NONSTANDARD WIND SENSOR HEIGHTS.
PIMA CO DEQ SITES DO NOT REPORT WIND GUSTS.
* INDICATES WIND SENSORS LOCATED AT 20 FEET INSTEAD OF 33 FEET.
..............................KEY..............................
SKY/WX - SKY CONDITION/WEATHER
TMP    - TEMPERATURE IN FAHRENHEIT
DP     - DEWPOINT IN FAHRENHEIT
RH     - RELATIVE HUMIDITY IN PERCENT
WIND   - DIRECTION AND SPEED IN MILES PER HOUR (MPH)
VRB    - VARIABLE WIND DIRECTION
PRES   - MEAN SEA LEVEL PRESSURE IN INCHES OF MERCURY
         F - FALLING PRESSURE   R - RISING PRESSURE
         S - STEADY PRESSURE
VSB    - VISIBILITY IN MILES
HX     - HEAT INDEX IN FAHRENHEIT
WCI    - WIND CHILL INDEX IN FAHRENHEIT
N/A    - NOT AVAILABLE
AFB    - AIR FORCE BASE
         DAVIS-MONTHAN IS DAVIS-MONTHAN AIR FORCE BASE
CYN    - CANYON
MTNS   - MOUNTAINS
NCA    - NATIONAL CONSERVATION AREA
NR     - NEAR
VLY    - VALLEY
CONTL  - CONTINENTAL
PIMA CO DEQ - PIMA COUNTY DEPT OF ENVIRONMENTAL QUALITY



USA.gov is the U.S. government's official web portal to all federal, state and local government web resources and services.